Thursday, June 30, 2016
08:35 UTC
  |  Log In   |  Register Free
Airport Search:

Churchill Downs Airport
(22KY)

Churchill Downs Airport Diagram
No Airport Diagram Available

FAA data valid effective May 26 2016 - Jul 21 2016 (unless otherwise noted).

 
 
 
 
 
 
 
 
 
 
 
 
 
 
Summary: Churchill Downs (22KY)

Weather Summary


METAR for 22KY is not available. Closest METAR is for KLOU 5.2 nm SW
KLOU  (5.2 nm SW)   (most recent observation was updated at 30:07 UTC)
300753Z AUTO 00000KT 10SM CLR 17/14 A3005 RMK AO2 SLP172 T01670139

KFTK  (20.2 nm NE)   (most recent observation was updated at 30:07 UTC)
300758Z AUTO 33001KT 10SM CLR 13/12 A3004 RMK AO2 SLP172 T01280122

TAF for 22KY is not available.
KSDF
300520Z 3006/0112 04004KT P6SM FEW250 FM301400 VRB04KT P6SM FEW040 SCT250

KFTK  (20.2 nm NE)   (most recent observation was updatred at 30:01 UTC)
300100Z 3001/0107 02006KT 9999 FEW040 FEW130 QNH2995INS BECMG 0102/0103 19006KT 9999 SCT045 BKN075 QNH2996INS TX29/3021Z TN14/3011Z


GlobalAir.com is loading additional information.
Current weather conditions are not available for 22KY.

The nearest NOAA weather station is at SDF (2 nm SE from 22KY)
 Current Weather at SDF
66.0 F° (18.9 C°)
Fair
North winds at 0.0 mph
Pressure:
30.06 in
Humidity:
73%
Wind:
Calm
Dew Point:
57.0 F° (13.9 C°)
Visibility:
10.00 mi
22KY NOAA Radar

Runway Summary

ID Dimensions Surface Instrument Approaches
H1 125 ft x 250 ft Brick N/A

Communications Summary


CTAFN/A
UNICOMN/A
ATISN/A
CLEARANCE DELIVERYN/A

Terminal Procedures Summary


No terminal procedures available for 22KY





Closest Alternate Airports with Instrument Procedures

KSDF - Louisville International-Standiford Field - 2.7 nm SE from 22KY

KLOU - Bowman Field - 6 nm NE from 22KY

KJVY - Clark Regional - 11.4 nm NE from 22KY

KBRY - Samuels Field - 30.6 nm SE from 22KY

KEKX - Addington Field - 36.7 nm SW from 22KY

KIMS - Madison Municipal - 41.9 nm NE from 22KY

KFFT - Capital City - 47 nm SE from 22KY

K6I2 - Lebanon-Springfield - 48.8 nm SE from 22KY

KSER - Freeman Municipal - 50.5 nm NW from 22KY

KFRH - French Lick Municipal - 51.5 nm NW from 22KY

Find All Airport Services Find A Hotel Find A Rental Car Find A Golf Course Find A Restaurant $100 Hamburger



FBO's on the Field
FBO Company Facility Photos Services Transportation Aviation Fuel Prices: Prices include tax
Catering Weather Repair Courtesy Rental Type 100LL JetA JetA+ MOGAS 8087
 
Add another FBO Facility Photos Catering Weather Repair Courtesy Rental Type 100LL JetA JetA+ MOGAS 8087
Services Transportation Aviation Fuel Prices: Prices include tax
There are no FBO's currently reporting fuel at 22KY. List your FBO now


model-print
model-print
model-print
model-print